User: anonymous   Login
Location: Unspecified
(0.0000°N, 0.0000°E)
Time: 00:49:02
(UTC+00:00)
Language:

STARLINK-32465 - Orbit

View from above orbital plane
View from above orbital plane
View from above satellite
View from above satellite

Ground track
Ground track

The orbit is defined by the following mean orbital elements,

1 61716U          26145.17970705 +.00000000 +00000-0 +32731-4 0 00008
2 61716  53.1609 106.3337 0001343 102.4187 257.6965 15.30201651    08
Epoch (UTC): 25 May 2026 04:18:46
Eccentricity: 0.0001343
inclination: 53.1609°
perigee height: 474 km
apogee height: 476 km
right ascension of ascending node: 106.3337°
argument of perigee: 102.4187°
revolutions per day: 15.30201651
mean anomaly at epoch: 257.6965°

The dashed part of the orbit path shows where the satellite is in the earth's shadow,  

DLR